Cloquet, MN

4:48 PM CST on November 13, 2019 (GMT -0600)
Cloquet Carlton County

Weather History for KCOQ - October, 2019

Change the Weather History Date:

Sunday, October 20, 2019

  Actual Average Record
Temperature  
Mean Temperature 46 °F -  
Max Temperature 62 °F 48 °F 75 °F (2017)
Min Temperature 30 °F 33 °F 23 °F (2002)
Degree Days  
Heating Degree Days 19    
Moisture  
Dew Point 31 °F    
Average Humidity 57    
Maximum Humidity 93    
Minimum Humidity 22    
Precipitation  
Precipitation 0.00 in - - ()
Sea Level Pressure  
Sea Level Pressure 29.81 in    
Wind  
Wind Speed 2 mph ()    
Max Wind Speed 8 mph    
Max Gust Speed -    
Visibility 10.0 miles    
Events      
Averages and records for this station are not official NWS values.
T = Trace of Precipitation, MM = Missing Value Source: Averaged Metar Reports

Daily Weather History Graph

Daily Weather History Graph

Search for Another Location

Airport or City:

Astronomy

Oct. 20, 2019 Rise Set
Actual Time 7:34 AM CDT 6:14 PM CDT
Civil Twilight 7:03 AM CDT 6:45 PM CDT
Nautical Twilight 6:28 AM CDT 7:20 PM CDT
Astronomical Twilight 5:53 AM CDT 7:55 PM CDT
Moon 11:09 PM CDT (10/20) 2:18 PM CDT (10/20)
Length of Visible Light 11h 41m
Length of Day
10h 39m
Waning Gibbous, 59% of the Moon is Illuminated
Oct 20
Waning Gibbous
Oct 21
Last Quarter
Oct 27
New
Nov 4
First Quarter
Nov 12
Full

Hourly Weather History & Observations

Time (CDT) Temp. Windchill Dew Point Humidity Pressure Visibility Wind Dir Wind Speed Gust Speed Precip Events Conditions
12:15 AM 39.2 °F - 30.2 °F 70% 29.69 in 10.0 mi Calm Calm - N/A   Clear
12:16 AM 39.2 °F - 30.2 °F 70% 29.69 in 10.0 mi Calm Calm - N/A   Clear
12:35 AM 37.4 °F - 30.2 °F 75% 29.70 in 10.0 mi Calm Calm - N/A   Clear
12:36 AM 37.4 °F - 30.2 °F 75% 29.70 in 10.0 mi Calm Calm - N/A   Clear
12:55 AM 42.8 °F 39.3 °F 30.2 °F 61% 29.70 in 10.0 mi SW 5.8 mph - N/A   Clear
1:15 AM 42.8 °F 40.1 °F 30.2 °F 61% 29.70 in 10.0 mi WSW 4.6 mph - N/A   Clear
1:16 AM 42.8 °F 39.3 °F 30.2 °F 61% 29.70 in 10.0 mi WSW 5.8 mph - N/A   Clear
1:55 AM 39.2 °F 37.0 °F 30.2 °F 70% 29.71 in 10.0 mi WSW 3.5 mph - N/A   Clear
1:56 AM 39.2 °F 37.0 °F 30.2 °F 70% 29.71 in 10.0 mi WSW 3.5 mph - N/A   Clear
2:15 AM 39.2 °F 35.9 °F 30.2 °F 70% 29.71 in 10.0 mi WSW 4.6 mph - N/A   Mostly Cloudy
2:55 AM 42.8 °F 41.1 °F 30.2 °F 61% 29.72 in 10.0 mi West 3.5 mph - N/A   Scattered Clouds
2:56 AM 42.8 °F 41.1 °F 30.2 °F 61% 29.72 in 10.0 mi West 3.5 mph - N/A   Scattered Clouds
3:15 AM 39.2 °F 37.0 °F 30.2 °F 70% 29.72 in 10.0 mi West 3.5 mph - N/A   Clear
3:35 AM 37.4 °F 33.8 °F 30.2 °F 75% 29.72 in 10.0 mi West 4.6 mph - N/A   Clear
3:36 AM 37.4 °F 33.8 °F 30.2 °F 75% 29.72 in 10.0 mi West 4.6 mph - N/A   Clear
3:55 AM 37.4 °F - 30.2 °F 75% 29.73 in 10.0 mi Calm Calm - N/A   Clear
3:56 AM 37.4 °F - 30.2 °F 75% 29.73 in 10.0 mi Calm Calm - N/A   Clear
4:15 AM 37.4 °F 34.9 °F 30.2 °F 75% 29.73 in 10.0 mi West 3.5 mph - N/A   Clear
4:35 AM 33.8 °F - 28.4 °F 81% 29.74 in 10.0 mi Calm Calm - N/A   Clear
4:36 AM 33.8 °F - 28.4 °F 81% 29.74 in 10.0 mi Calm Calm - N/A   Clear
4:55 AM 35.6 °F - 30.2 °F 81% 29.74 in 10.0 mi Calm Calm - N/A   Clear
5:15 AM 33.8 °F - 28.4 °F 81% 29.75 in 10.0 mi Calm Calm - N/A   Clear
5:16 AM 33.8 °F - 28.4 °F 81% 29.75 in 10.0 mi Calm Calm - N/A   Clear
5:35 AM 33.8 °F - 30.2 °F 87% 29.76 in 10.0 mi Calm Calm - N/A   Clear
5:36 AM 33.8 °F - 30.2 °F 87% 29.76 in 10.0 mi Calm Calm - N/A   Clear
5:55 AM 33.8 °F - 28.4 °F 81% 29.77 in 10.0 mi Calm Calm - N/A   Clear
5:56 AM 33.8 °F - 28.4 °F 81% 29.77 in 10.0 mi Calm Calm - N/A   Clear
6:15 AM 33.8 °F - 30.2 °F 87% 29.78 in 10.0 mi Calm Calm - N/A   Clear
6:35 AM 32.0 °F - 28.4 °F 87% 29.78 in 10.0 mi Calm Calm - N/A   Clear
6:55 AM 32.0 °F - 28.4 °F 87% 29.78 in 10.0 mi Calm Calm - N/A   Clear
7:15 AM 30.2 °F 26.7 °F 28.4 °F 93% 29.79 in 10.0 mi NNW 3.5 mph - N/A   Clear
7:35 AM 30.2 °F - 28.4 °F 93% 29.80 in 10.0 mi Calm Calm - N/A   Clear
7:55 AM 32.0 °F 28.7 °F 28.4 °F 87% 29.81 in 10.0 mi NW 3.5 mph - N/A   Clear
7:56 AM 32.0 °F 28.7 °F 30.2 °F 93% 29.81 in 10.0 mi NW 3.5 mph - N/A   Clear
8:15 AM 33.8 °F - 30.2 °F 87% 29.82 in 10.0 mi Calm Calm - N/A   Clear
8:35 AM 33.8 °F - 30.2 °F 87% 29.82 in 10.0 mi Calm Calm - N/A   Clear
8:36 AM 33.8 °F - 30.2 °F 87% 29.82 in 10.0 mi Calm Calm - N/A   Clear
8:55 AM 37.4 °F 34.9 °F 33.8 °F 87% 29.83 in 10.0 mi NNW 3.5 mph - N/A   Clear
9:15 AM 42.8 °F - 35.6 °F 76% 29.84 in 10.0 mi Calm Calm - N/A   Clear
9:35 AM 44.6 °F - 35.6 °F 71% 29.84 in 10.0 mi Calm Calm - N/A   Clear
9:36 AM 44.6 °F - 35.6 °F 71% 29.84 in 10.0 mi Calm Calm - N/A   Clear
10:15 AM 50.0 °F - 37.4 °F 62% 29.84 in 10.0 mi Calm Calm - N/A   Clear
10:36 AM 53.6 °F - 35.6 °F 51% 29.85 in 10.0 mi Calm Calm - N/A   Clear
10:55 AM 53.6 °F - 35.6 °F 51% 29.85 in 10.0 mi Calm Calm - N/A   Clear
11:15 AM 55.4 °F - 35.6 °F 47% 29.85 in 10.0 mi ESE 4.6 mph - N/A   Clear
11:35 AM 55.4 °F - 33.8 °F 44% 29.85 in 10.0 mi SE 3.5 mph - N/A   Clear
11:55 AM 57.2 °F - 33.8 °F 41% 29.85 in 10.0 mi SSW 3.5 mph - N/A   Clear
11:56 AM 57.2 °F - 33.8 °F 41% 29.85 in 10.0 mi SSW 4.6 mph - N/A   Clear
12:15 PM 57.2 °F - 35.6 °F 44% 29.86 in 10.0 mi SSW 3.5 mph - N/A   Clear
12:35 PM 57.2 °F - 33.8 °F 41% 29.85 in 10.0 mi SE 4.6 mph - N/A   Clear
12:55 PM 59.0 °F - 32.0 °F 36% 29.85 in 10.0 mi SSW 5.8 mph - N/A   Clear
1:15 PM 59.0 °F - 30.2 °F 34% 29.86 in 10.0 mi SW 5.8 mph - N/A   Clear
1:35 PM 59.0 °F - 30.2 °F 34% 29.86 in 10.0 mi SSW 3.5 mph - N/A   Clear
1:36 PM 59.0 °F - 30.2 °F 34% 29.85 in 10.0 mi SSW 5.8 mph - N/A   Clear
1:55 PM 60.8 °F - 30.2 °F 31% 29.85 in 10.0 mi Calm Calm - N/A   Clear
2:15 PM 60.8 °F - 28.4 °F 29% 29.85 in 10.0 mi SSW 3.5 mph - N/A   Clear
2:16 PM 60.8 °F - 28.4 °F 29% 29.84 in 10.0 mi SSW 5.8 mph - N/A   Clear
2:35 PM 62.6 °F - 28.4 °F 27% 29.85 in 10.0 mi South 3.5 mph - N/A   Clear
2:36 PM 62.6 °F - 28.4 °F 27% 29.85 in 10.0 mi Calm Calm - N/A   Clear
2:55 PM 60.8 °F - 26.6 °F 27% 29.85 in 10.0 mi South 3.5 mph - N/A   Clear
3:15 PM 60.8 °F - 23.0 °F 23% 29.84 in 10.0 mi South 5.8 mph - N/A   Clear
3:35 PM 62.6 °F - 23.0 °F 22% 29.85 in 10.0 mi South 6.9 mph - N/A   Clear
3:36 PM 62.6 °F - 23.0 °F 22% 29.85 in 10.0 mi South 5.8 mph - N/A   Clear
3:55 PM 60.8 °F - 21.2 °F 22% 29.86 in 10.0 mi WSW 8.1 mph - N/A   Clear
4:15 PM 60.8 °F - 23.0 °F 23% 29.86 in 10.0 mi SW 3.5 mph - N/A   Clear
4:16 PM 60.8 °F - 23.0 °F 23% 29.86 in 10.0 mi SSW 3.5 mph - N/A   Clear
4:35 PM 60.8 °F - 24.8 °F 25% 29.86 in 10.0 mi Calm Calm - N/A   Clear
4:55 PM 60.8 °F - 24.8 °F 25% 29.86 in 10.0 mi Calm Calm - N/A   Clear
5:15 PM 59.0 °F - 24.8 °F 27% 29.86 in 10.0 mi Calm Calm - N/A   Clear
5:35 PM 57.2 °F - 28.4 °F 33% 29.86 in 10.0 mi Calm Calm - N/A   Clear
5:55 PM 55.4 °F - 33.8 °F 44% 29.86 in 10.0 mi East 3.5 mph - N/A   Clear
5:56 PM 55.4 °F - 35.6 °F 47% 29.86 in 10.0 mi East 3.5 mph - N/A   Clear
6:15 PM 55.4 °F - 33.8 °F 44% 29.86 in 10.0 mi East 4.6 mph - N/A   Clear
6:16 PM 55.4 °F - 33.8 °F 44% 29.86 in 10.0 mi East 4.6 mph - N/A   Clear
6:35 PM 55.4 °F - 33.8 °F 44% 29.85 in 10.0 mi East 3.5 mph - N/A   Clear
6:36 PM 55.4 °F - 33.8 °F 44% 29.85 in 10.0 mi East 3.5 mph - N/A   Clear
6:57 PM 53.6 °F - 33.8 °F 47% 29.86 in - East 4.6 mph - N/A   Unknown
7:15 PM 53.6 °F - 33.8 °F 47% 29.86 in 10.0 mi East 3.5 mph - N/A   Clear
7:16 PM 53.6 °F - 33.8 °F 47% 29.86 in 10.0 mi East 3.5 mph - N/A   Clear
7:35 PM 51.8 °F - 33.8 °F 50% 29.86 in 10.0 mi East 3.5 mph - N/A   Clear
7:55 PM 51.8 °F - 33.8 °F 50% 29.86 in 10.0 mi East 3.5 mph - N/A   Clear
7:56 PM 51.8 °F - 33.8 °F 50% 29.86 in 10.0 mi East 4.6 mph - N/A   Clear
8:15 PM 51.8 °F - 35.6 °F 54% 29.87 in 10.0 mi East 3.5 mph - N/A   Clear
8:35 PM 51.8 °F - 33.8 °F 50% 29.87 in 10.0 mi East 4.6 mph - N/A   Clear
8:55 PM 51.8 °F - 33.8 °F 50% 29.87 in 10.0 mi East 4.6 mph - N/A   Clear
8:56 PM 51.8 °F - 33.8 °F 50% 29.87 in 10.0 mi East 4.6 mph - N/A   Clear
9:15 PM 51.8 °F - 33.8 °F 50% 29.87 in 10.0 mi East 3.5 mph - N/A   Clear
9:35 PM 50.0 °F - 33.8 °F 54% 29.87 in 10.0 mi East 4.6 mph - N/A   Clear
10:15 PM 50.0 °F - 35.6 °F 58% 29.87 in 10.0 mi East 4.6 mph - N/A   Mostly Cloudy
10:35 PM 50.0 °F - 35.6 °F 58% 29.87 in 10.0 mi East 4.6 mph - N/A   Overcast
10:36 PM 50.0 °F - 35.6 °F 58% 29.87 in 10.0 mi East 4.6 mph - N/A   Overcast
10:55 PM 50.0 °F - 35.6 °F 58% 29.87 in 10.0 mi East 4.6 mph - N/A   Overcast
11:15 PM 50.0 °F - 35.6 °F 58% 29.87 in 10.0 mi East 6.9 mph - N/A   Scattered Clouds
11:35 PM 48.2 °F - 37.4 °F 66% 29.87 in 10.0 mi East 4.6 mph - N/A   Mostly Cloudy
11:55 PM 48.2 °F - 37.4 °F 66% 29.87 in 10.0 mi East 5.8 mph - N/A   Overcast
11:56 PM 48.2 °F - 37.4 °F 66% 29.87 in 10.0 mi East 5.8 mph - N/A   Overcast